Home   Weather   Easter Island   Past weeks

Flag for Chile Past Weather in Easter Island, Chile — Yesterday and Last 2 Weeks

Now
77 °F

Scattered clouds.


Feels Like: 79 °F
Forecast: N/A
Wind: 5 mph from Southeast

Location: Isla De Pascua

Current Time: Apr 26, 2017 at 6:43:19 pm

Latest Report: Apr 26, 2017 at 6:00 pm


Visibility: N/A

Pressure: 30.15 "Hg

Humidity: 74%

Dew Point: 68 °F

Location of Easter IslandLocation

Past Weather in Easter Island — Graph

°F

Easter Island Temperature Yesterday

Maximum temperature yesterday: 81 °F (at 1:00 pm)
Minimum temperature yesterday: 70 °F (at 8:00 am)
Average temperature yesterday: 75 °F

High & Low Weather Summary for the Past Weeks

 TemperatureHumidityPressure
High82 °F (Apr 16, 3:00 pm)100% (Apr 20, 3:00 am)30.27 "Hg (Apr 20, 3:00 am)
Low66 °F (Apr 14, 6:00 am)47% (Apr 14, 2:00 pm)29.80 "Hg (Apr 13, 4:00 am)
Average75 °F81%30.03 "Hg
* Reported Apr 11 5:00 pm — Apr 26 5:00 pm, Easter Island, Weather by CustomWeather, © 2017

Note: Actual official high and low records may vary slightly from our data, if they occured in-between our weather recording intervals... More about our weather records

Advertising

Easter Island Weather History for the Previous 24 Hours

Scroll right to see more
 ConditionsComfort  
Time TempWeatherWind HumidityBarometerVisibility
5:00 pm
Wed, Apr 26
79 °FSprinkles. Partly sunny.5 mph70%30.15 "HgN/A
4:00 pm79 °FPartly sunny.3 mph70%30.15 "HgN/A
3:00 pm79 °FScattered clouds.3 mph70%30.18 "HgN/A
2:00 pm79 °FPassing clouds.2 mph70%30.21 "HgN/A
1:00 pm79 °FScattered clouds.5 mph70%30.21 "HgN/A
12:00 pm77 °FScattered clouds.6 mph74%30.21 "HgN/A
11:00 am77 °FPassing clouds.3 mph74%30.21 "HgN/A
10:00 am73 °FPassing clouds.3 mph89%30.21 "HgN/A
9:00 am68 °FPassing clouds.5 mph94%30.18 "HgN/A
8:00 am68 °FPassing clouds.6 mph94%30.18 "HgN/A
7:00 am68 °FPassing clouds.6 mph94%30.15 "HgN/A
6:00 am68 °FPassing clouds.6 mph88%30.18 "HgN/A
5:00 am70 °FPassing clouds.5 mph88%30.18 "HgN/A
4:00 am68 °FPassing clouds.5 mph94%30.21 "HgN/A
3:00 am68 °FPassing clouds.6 mph88%30.21 "HgN/A
2:00 am70 °FPassing clouds.6 mph88%30.21 "HgN/A
1:00 am70 °FPassing clouds.5 mph88%30.24 "HgN/A
12:00 am72 °FPassing clouds.5 mph88%30.24 "HgN/A
11:00 pm
Tue, Apr 25
72 °FPassing clouds.6 mph88%30.24 "HgN/A
10:00 pm72 °FPassing clouds.7 mph88%30.21 "HgN/A
9:00 pm73 °FPassing clouds.7 mph89%30.18 "HgN/A
8:00 pm75 °FPassing clouds.8 mph83%30.18 "HgN/A
7:00 pm77 °FScattered clouds.7 mph79%30.18 "HgN/A
6:00 pm81 °FPartly sunny.9 mph70%30.18 "HgN/A
Weather by CustomWeather, © 2017

See weather overviewHow to use our weather pages